TimeCDT,TemperatureF,Dew PointF,Humidity,Sea Level PressureIn,VisibilityMPH,Wind Direction,Wind SpeedMPH,Gust SpeedMPH,PrecipitationIn,Events,Conditions,WindDirDegrees,DateUTC
12:15 AM,64.4,53.6,68,29.90,10.0,SE,8.1,-,N/A,,Overcast,130,2013-06-18 05:15:00
12:35 AM,64.4,53.6,68,29.88,10.0,SE,9.2,-,0.01,,Overcast,140,2013-06-18 05:35:00
12:55 AM,64.4,51.8,64,29.88,10.0,SE,8.1,-,0.01,,Overcast,140,2013-06-18 05:55:00
1:15 AM,64.4,53.6,68,29.86,10.0,SSE,9.2,-,N/A,,Overcast,160,2013-06-18 06:15:00
1:35 AM,64.4,51.8,64,29.86,10.0,SE,9.2,-,N/A,,Scattered Clouds,130,2013-06-18 06:35:00
1:55 AM,64.4,53.6,68,29.84,10.0,SSE,13.8,19.6,N/A,,Mostly Cloudy,150,2013-06-18 06:55:00
2:15 AM,64.4,53.6,68,29.84,10.0,SSE,10.4,18.4,N/A,,Partly Cloudy,150,2013-06-18 07:15:00
2:35 AM,64.4,53.6,68,29.84,10.0,SE,3.5,-,N/A,,Clear,130,2013-06-18 07:35:00
2:55 AM,64.4,53.6,68,29.88,10.0,NNW,9.2,20.7,N/A,,Scattered Clouds,330,2013-06-18 07:55:00
3:15 AM,64.4,53.6,68,29.91,10.0,North,6.9,-,N/A,,Mostly Cloudy,360,2013-06-18 08:15:00
3:35 AM,64.4,53.6,68,29.91,10.0,NNW,4.6,-,N/A,,Overcast,340,2013-06-18 08:35:00
3:55 AM,66.2,53.6,64,29.91,10.0,NW,5.8,-,N/A,,Overcast,320,2013-06-18 08:55:00
4:15 AM,64.4,53.6,68,29.90,10.0,Calm,Calm,-,N/A,,Mostly Cloudy,0,2013-06-18 09:15:00
4:35 AM,64.4,53.6,68,29.91,10.0,NNW,3.5,-,N/A,,Clear,330,2013-06-18 09:35:00
4:55 AM,64.4,53.6,68,29.92,10.0,NNW,6.9,-,N/A,,Clear,340,2013-06-18 09:55:00
5:15 AM,64.4,53.6,68,29.92,10.0,North,4.6,-,N/A,,Clear,10,2013-06-18 10:15:00
5:35 AM,64.4,53.6,68,29.92,10.0,Calm,Calm,-,N/A,,Clear,0,2013-06-18 10:35:00
5:55 AM,64.4,53.6,68,29.93,10.0,NNW,6.9,-,N/A,,Clear,330,2013-06-18 10:55:00
6:15 AM,64.4,55.4,73,29.93,10.0,NE,6.9,-,N/A,,Clear,40,2013-06-18 11:15:00
6:35 AM,66.2,55.4,68,29.93,10.0,NNE,6.9,-,N/A,,Clear,30,2013-06-18 11:35:00
6:55 AM,66.2,55.4,68,29.95,10.0,NNE,6.9,-,N/A,,Clear,30,2013-06-18 11:55:00
7:15 AM,66.2,55.4,68,29.96,10.0,North,4.6,-,N/A,,Clear,10,2013-06-18 12:15:00
7:35 AM,66.2,55.4,68,29.95,10.0,NNE,4.6,-,N/A,,Clear,20,2013-06-18 12:35:00
7:55 AM,69.8,57.2,64,29.95,10.0,NNE,6.9,-,N/A,,Clear,20,2013-06-18 12:55:00
8:15 AM,69.8,57.2,64,29.95,10.0,NNE,6.9,-,N/A,,Clear,30,2013-06-18 13:15:00
8:35 AM,71.6,57.2,60,29.95,10.0,NNE,6.9,-,N/A,,Clear,20,2013-06-18 13:35:00
8:55 AM,71.6,57.2,60,29.96,10.0,North,5.8,-,N/A,,Clear,10,2013-06-18 13:55:00
9:15 AM,73.4,57.2,57,29.95,10.0,North,5.8,-,N/A,,Clear,360,2013-06-18 14:15:00
9:35 AM,73.4,57.2,57,29.94,10.0,NE,3.5,-,N/A,,Clear,50,2013-06-18 14:35:00
9:55 AM,73.4,57.2,57,29.95,10.0,Calm,Calm,-,N/A,,Clear,0,2013-06-18 14:55:00
10:15 AM,73.4,57.2,57,29.95,10.0,Calm,Calm,-,N/A,,Clear,0,2013-06-18 15:15:00
10:35 AM,73.4,57.2,57,29.95,10.0,Calm,Calm,-,N/A,,Clear,0,2013-06-18 15:35:00
10:55 AM,75.2,57.2,53,29.95,10.0,Calm,Calm,-,N/A,,Clear,0,2013-06-18 15:55:00
11:15 AM,75.2,59.0,57,29.95,10.0,Calm,Calm,-,N/A,,Clear,0,2013-06-18 16:15:00
12:15 PM,80.6,60.8,51,29.94,10.0,Calm,Calm,-,N/A,,Clear,0,2013-06-18 17:15:00
12:35 PM,80.6,60.8,51,29.94,10.0,SSW,3.5,-,N/A,,Clear,210,2013-06-18 17:35:00
1:15 PM,80.6,60.8,51,29.94,10.0,West,8.1,-,N/A,,Clear,260,2013-06-18 18:15:00
1:35 PM,82.4,60.8,48,29.93,10.0,WNW,5.8,-,N/A,,Clear,300,2013-06-18 18:35:00
1:55 PM,82.4,60.8,48,29.93,10.0,West,6.9,-,N/A,,Clear,260,2013-06-18 18:55:00
2:15 PM,84.2,62.6,48,29.92,10.0,WNW,4.6,-,N/A,,Clear,300,2013-06-18 19:15:00
2:35 PM,84.2,64.4,51,29.93,10.0,WNW,6.9,-,N/A,,Clear,300,2013-06-18 19:35:00
2:55 PM,84.2,62.6,48,29.93,10.0,WSW,5.8,-,N/A,,Clear,250,2013-06-18 19:55:00
3:15 PM,84.2,62.6,48,29.91,10.0,WSW,5.8,-,N/A,,Partly Cloudy,250,2013-06-18 20:15:00
3:35 PM,84.2,64.4,51,29.91,10.0,WNW,6.9,-,N/A,,Partly Cloudy,300,2013-06-18 20:35:00
3:55 PM,84.2,62.6,48,29.90,10.0,WNW,8.1,-,N/A,,Clear,300,2013-06-18 20:55:00
4:15 PM,86.0,62.6,45,29.89,10.0,West,5.8,-,N/A,,Clear,270,2013-06-18 21:15:00
4:35 PM,84.2,62.6,48,29.89,10.0,West,8.1,-,N/A,,Clear,260,2013-06-18 21:35:00
4:55 PM,84.2,62.6,48,29.89,10.0,WSW,5.8,-,N/A,,Clear,250,2013-06-18 21:55:00
5:15 PM,84.2,64.4,51,29.88,10.0,West,6.9,-,N/A,,Clear,260,2013-06-18 22:15:00
5:35 PM,84.2,62.6,48,29.88,10.0,WSW,6.9,-,N/A,,Clear,250,2013-06-18 22:35:00
5:55 PM,84.2,62.6,48,29.89,10.0,West,6.9,-,N/A,,Clear,270,2013-06-18 22:55:00
6:15 PM,84.2,62.6,48,29.89,10.0,West,5.8,-,N/A,,Clear,270,2013-06-18 23:15:00
6:35 PM,84.2,64.4,51,29.89,10.0,West,5.8,-,N/A,,Clear,260,2013-06-18 23:35:00
6:55 PM,84.2,62.6,48,29.90,10.0,SW,4.6,-,N/A,,Clear,230,2013-06-18 23:55:00
7:15 PM,75.2,57.2,53,29.91,10.0,NE,17.3,-,N/A,Thunderstorm,Thunderstorm,40,2013-06-19 00:15:00
7:35 PM,71.6,57.2,60,29.92,10.0,NE,8.1,18.4,0.05,Thunderstorm,Thunderstorm,50,2013-06-19 00:35:00
7:55 PM,71.6,59.0,64,29.93,10.0,South,5.8,-,0.05,Thunderstorm,Scattered Clouds,180,2013-06-19 00:55:00
8:15 PM,71.6,59.0,64,29.94,10.0,South,6.9,-,N/A,Thunderstorm,Clear,180,2013-06-19 01:15:00
8:35 PM,69.8,57.2,64,29.94,10.0,South,6.9,-,N/A,,Clear,170,2013-06-19 01:35:00
8:55 PM,69.8,57.2,64,29.94,10.0,SSE,4.6,-,N/A,,Mostly Cloudy,160,2013-06-19 01:55:00
9:15 PM,69.8,57.2,64,29.94,10.0,SE,4.6,-,N/A,,Mostly Cloudy,140,2013-06-19 02:15:00
9:35 PM,69.8,57.2,64,29.95,10.0,SSE,3.5,-,N/A,,Mostly Cloudy,160,2013-06-19 02:35:00
9:55 PM,69.8,57.2,64,29.97,10.0,West,6.9,-,N/A,Thunderstorm,Mostly Cloudy,270,2013-06-19 02:55:00
10:15 PM,68.0,55.4,64,29.97,10.0,Calm,Calm,-,N/A,,Scattered Clouds,0,2013-06-19 03:15:00
10:35 PM,68.0,55.4,64,29.96,10.0,SE,3.5,-,N/A,,Scattered Clouds,140,2013-06-19 03:35:00
10:55 PM,68.0,57.2,68,29.96,10.0,WSW,8.1,-,N/A,,Partly Cloudy,240,2013-06-19 03:55:00
11:15 PM,68.0,57.2,68,29.96,10.0,SSW,5.8,-,N/A,,Mostly Cloudy,200,2013-06-19 04:15:00
11:35 PM,66.2,55.4,68,29.97,10.0,North,4.6,-,N/A,,Scattered Clouds,10,2013-06-19 04:35:00
11:55 PM,66.2,55.4,68,29.96,10.0,Calm,Calm,-,N/A,,Partly Cloudy,0,2013-06-19 04:55:00